Flag for Germany Weather past 2 weeks in Forchheim, Bavaria, Germany

Now
61 °F

Sunny.


Feels Like: 61 °F
Forecast: 56 / 79 °F
Wind: 2 mph from Northwest

Location: Bamberg

Current Time: Jul 23, 2014 at 8:27:10 AM

Latest Report: Jul 23, 2014 at 6:00 AM


Visibility: 15 mi

Pressure: 30.02 "Hg

Humidity: 90%

Dew point: 58 °F

Location of ForchheimLocation

Historic Weather in Forchheim — Graph

°F

Forchheim temperature yesterday

Maximum temperature yesterday: 83 °F (at 4:00 PM)
Minimum temperature yesterday: 66 °F (at 3:00 AM)
Average temperature yesterday: 73 °F

Past Weeks' High & Low Weather Summary

 TemperatureHumidityPressure
High90 °F (Jul 19, 4:00 PM)100% (Jul 12, 2:00 AM)30.19 "Hg (Jul 12, 2:00 AM)
Low52 °F (Jul 17, 6:00 AM)26% (Jul 20, 4:00 PM)29.71 "Hg (Jul 8, 2:00 PM)
Average67 °F79%29.93 "Hg
* Reported Jul 8 6:00 AM — Jul 23 6:00 AM, Forchheim, Weather by CustomWeather, © 2014

Note: Actual official high and low records may vary slightly from our data, if they occured in-between our weather recording intervals... More about our weather records

Advertising

Forchheim weather history for previous 24 hours

 ConditionsComfort  
Time TempWeatherWind HumidityBarometerVisibility
6:00 AM
Jul 23
61 °FSunny.2 mph90%30.02 "Hg15 mi
5:00 AM59 °FClear.1 mph96%30.02 "Hg11 mi
4:00 AM59 °FPassing clouds.1 mph94%30.02 "Hg7 mi
3:00 AM60 °FPassing clouds.1 mph96%30.02 "Hg7 mi
2:00 AM62 °FPassing clouds.2 mph91%30.02 "Hg12 mi
7:00 PM
Jul 22
81 °FOvercast.5 mph39%29.91 "Hg22 mi
6:00 PM83 °FOvercast.6 mph36%29.90 "Hg28 mi
5:00 PM83 °FOvercast.6 mph36%29.90 "Hg19 mi
4:00 PM83 °FPartly sunny.8 mph38%29.90 "Hg19 mi
3:00 PM82 °FPartly sunny.3 mph52%29.90 "Hg14 mi
2:00 PM78 °FOvercast.5 mph63%29.91 "Hg9 mi
1:00 PM77 °FOvercast.5 mph65%29.91 "Hg10 mi
12:00 PM75 °FOvercast.5 mph70%29.90 "Hg7 mi
11:00 AM74 °FOvercast.5 mph75%29.90 "Hg7 mi
10:00 AM71 °FOvercast.3 mph84%29.90 "Hg5 mi
9:00 AM69 °FFog.5 mph90%29.88 "Hg3 mi
8:00 AM68 °FOvercast.2 mph95%29.87 "Hg3 mi
Weather by CustomWeather, © 2014

See weather overviewHow to use our weather pages